TimeEDT,TemperatureF,Dew PointF,Humidity,Sea Level PressureIn,VisibilityMPH,Wind Direction,Wind SpeedMPH,Gust SpeedMPH,PrecipitationIn,Events,Conditions,WindDirDegrees,DateUTC
12:53 AM,59.0,55.0,87,30.17,10.0,Calm,Calm,-,N/A,,Overcast,0,2012-05-13 04:53:00
1:53 AM,57.0,55.0,93,30.16,10.0,Calm,Calm,-,N/A,,Scattered Clouds,0,2012-05-13 05:53:00
2:53 AM,55.0,53.1,93,30.15,9.0,Calm,Calm,-,N/A,,Scattered Clouds,0,2012-05-13 06:53:00
3:53 AM,55.9,54.0,93,30.14,10.0,Calm,Calm,-,N/A,,Overcast,0,2012-05-13 07:53:00
4:53 AM,55.9,54.0,93,30.14,10.0,Calm,Calm,-,N/A,,Overcast,0,2012-05-13 08:53:00
5:53 AM,57.0,55.0,93,30.14,10.0,Calm,Calm,-,N/A,,Overcast,0,2012-05-13 09:53:00
6:53 AM,57.0,55.0,93,30.14,9.0,Calm,Calm,-,N/A,,Mostly Cloudy,0,2012-05-13 10:53:00
7:53 AM,59.0,55.9,90,30.14,10.0,Calm,Calm,-,N/A,,Overcast,0,2012-05-13 11:53:00
8:53 AM,62.1,57.9,86,30.14,10.0,Calm,Calm,-,N/A,,Overcast,0,2012-05-13 12:53:00
9:53 AM,66.9,54.0,63,30.14,10.0,ESE,9.2,-,N/A,,Scattered Clouds,120,2012-05-13 13:53:00
10:53 AM,66.9,55.0,66,30.13,10.0,ESE,6.9,-,N/A,,Partly Cloudy,110,2012-05-13 14:53:00
11:53 AM,66.9,54.0,63,30.12,10.0,East,9.2,-,N/A,,Overcast,100,2012-05-13 15:53:00
12:53 PM,71.1,54.0,55,30.11,10.0,East,10.4,-,N/A,,Scattered Clouds,80,2012-05-13 16:53:00
1:53 PM,72.0,54.0,53,30.09,10.0,East,9.2,18.4,N/A,,Partly Cloudy,100,2012-05-13 17:53:00
2:53 PM,71.1,52.0,51,30.08,10.0,ENE,12.7,20.7,N/A,,Clear,70,2012-05-13 18:53:00
3:53 PM,71.1,48.9,45,30.07,10.0,East,15.0,19.6,N/A,,Mostly Cloudy,90,2012-05-13 19:53:00
4:53 PM,72.0,52.0,49,30.04,10.0,East,10.4,18.4,N/A,,Scattered Clouds,80,2012-05-13 20:53:00
5:53 PM,71.1,54.0,55,30.04,10.0,East,5.8,-,N/A,,Partly Cloudy,80,2012-05-13 21:53:00
6:53 PM,71.1,53.1,53,30.03,10.0,NE,10.4,-,N/A,,Partly Cloudy,50,2012-05-13 22:53:00
7:53 PM,68.0,55.9,65,30.03,10.0,ESE,8.1,-,N/A,,Clear,120,2012-05-13 23:53:00
8:53 PM,64.0,57.0,78,30.04,10.0,ESE,6.9,-,N/A,,Clear,110,2012-05-14 00:53:00
9:53 PM,61.0,57.0,87,30.05,10.0,East,4.6,-,N/A,,Partly Cloudy,100,2012-05-14 01:53:00
10:11 PM,62.6,57.2,82,30.06,10.0,East,6.9,-,N/A,,Mostly Cloudy,100,2012-05-14 02:11:00
10:49 PM,62.6,57.2,82,30.07,10.0,East,6.9,-,N/A,,Overcast,90,2012-05-14 02:49:00
10:53 PM,62.1,57.0,84,30.06,10.0,ESE,8.1,-,N/A,,Overcast,110,2012-05-14 02:53:00
11:53 PM,62.1,57.0,84,30.05,10.0,East,5.8,-,N/A,,Mostly Cloudy,80,2012-05-14 03:53:00